Location: Home
(42.5358°N, 72.7383°W)
Time: 17:02:20
(UTC-05:00)

A-11 Canister half - Pass Details

Date: 29 November 2021
Orbit: 1516 x 1684 km, 47.2° (Epoch: 18 January)

Event Time Altitude Azimuth Distance (km) Brightness Sun altitude
Rises 10:03:53 0° 264° (W) 4,827 11.4 22.2°
Reaches altitude 10° 10:07:00 10° 267° (W) 3,863 11.0 22.4°
Maximum altitude 10:16:56 71° 351° (N) 1,749 9.5 23.1°
Drops below altitude 10° 10:27:07 10° 75° (ENE) 3,949 11.3 23.7°
Sets 10:30:20 0° 78° (ENE) 4,939 11.7 23.9°
